Location: Buch
(49.7331°N, 12.1098°E)
Time: 00:07:47
(UTC+00:00)

Landsat 7 - Pass Details

Date: 02 October 2021
Orbit: 701 x 703 km, 98.0° (Epoch: 23 October)

Event Time Altitude Azimuth Distance (km) Brightness Sun altitude
Exits shadow 18:38:01 27° 64° (ENE) 1,348 4.9 -18.5°
Maximum altitude 18:38:06 27° 63° (ENE) 1,347 4.9 -18.5°
Drops below altitude 10° 18:42:04 10° 6° (N) 2,182 6.5 -19.1°
Sets 18:44:36 0° 355° (N) 3,104 7.5 -19.5°
